Envisat - Orbit

View from above orbital plane
View from above orbital plane
View from above satellite
View from above satellite

Ground track
Ground track

The orbit data is extracted from the following two-line orbital elements,

1 27386U 02009A   13137.75724220  .00000080  00000-0  41077-4 0  3862
2 27386 098.4291 206.6554 0001245 082.6684 277.4641 14.37609454586761
Epoch (UTC): 17 May 2013 18:10:25
Eccentricity: 0.0001245
inclination: 98.4291°
perigee height: 765 km
apogee height: 767 km
right ascension of ascending node: 206.6554°
argument of perigee: 82.6684°
revolutions per day: 14.37609454
mean anomaly at epoch: 277.4641°
orbit number at epoch: 58676

The dashed part of the orbit path shows where the satellite is in the earth's shadow,  

Developed and maintained by Chris Peat, Heavens-Above GmbH. Please read the updated FAQ before sending e-mail. Imprint. DLR